Grub im Wienerwald
Wetterdaten: aktuell Mittwoch, 22.01.2020 22:06
Datum Zeit Temp. A. Feuchte A. Luftdruck Regen Wind Richtung Richtung Sonnenschein UV Solar Taupunkt Windchill Windben
22.01.2020 22:06 -0,3 C 94 % 1034,8 hPa 0,0 l/m 4,8 km/h N 360 0 min 0,0 UV-I 0 W/m -1,1 C -0,3 C 6,4 km/h
22.01.2020 22:03 -0,3 C 94 % 1034,7 hPa 0,0 l/m 5,4 km/h N 360 0 min 0,0 UV-I 0 W/m -1,1 C -0,3 C 9,7 km/h
22.01.2020 22:00 -0,3 C 94 % 1034,6 hPa 0,0 l/m 6,3 km/h N 360 0 min 0,0 UV-I 0 W/m -1,1 C -0,3 C 8,0 km/h
22.01.2020 21:57 -0,3 C 94 % 1034,6 hPa 0,0 l/m 7,0 km/h N 360 0 min 0,0 UV-I 0 W/m -1,1 C -0,9 C 11,3 km/h
22.01.2020 21:54 -0,3 C 94 % 1034,7 hPa 0,0 l/m 6,8 km/h N 360 0 min 0,0 UV-I 0 W/m -1,1 C -0,7 C 11,3 km/h
22.01.2020 21:51 -0,3 C 94 % 1034,6 hPa 0,0 l/m 6,6 km/h N 360 0 min 0,0 UV-I 0 W/m -1,1 C -0,5 C 12,9 km/h
22.01.2020 21:48 -0,4 C 94 % 1034,5 hPa 0,0 l/m 8,0 km/h N 5 0 min 0,0 UV-I 0 W/m -1,2 C -2,1 C 12,9 km/h
22.01.2020 21:45 -0,4 C 94 % 1034,6 hPa 0,0 l/m 7,2 km/h N 360 0 min 0,0 UV-I 0 W/m -1,2 C -1,2 C 11,3 km/h
22.01.2020 21:42 -0,4 C 94 % 1034,5 hPa 0,0 l/m 3,1 km/h N 355 0 min 0,0 UV-I 0 W/m -1,2 C -0,4 C 11,3 km/h
22.01.2020 21:39 -0,4 C 94 % 1034,3 hPa 0,0 l/m 4,2 km/h N 350 0 min 0,0 UV-I 0 W/m -1,2 C -0,4 C 6,4 km/h
22.01.2020 21:36 -0,4 C 94 % 1034,3 hPa 0,0 l/m 5,6 km/h N 350 0 min 0,0 UV-I 0 W/m -1,2 C -0,4 C 9,7 km/h
22.01.2020 21:33 -0,4 C 94 % 1034,3 hPa 0,0 l/m 5,2 km/h N-NW 348 0 min 0,0 UV-I 0 W/m -1,2 C -0,4 C 8,0 km/h
22.01.2020 21:30 -0,4 C 94 % 1034,2 hPa 0,0 l/m 7,3 km/h N-NW 348 0 min 0,0 UV-I 0 W/m -1,2 C -1,3 C 11,3 km/h
22.01.2020 21:27 -0,5 C 94 % 1034,2 hPa 0,0 l/m 5,7 km/h N-NW 342 0 min 0,0 UV-I 0 W/m -1,3 C -0,5 C 9,7 km/h
22.01.2020 21:24 -0,4 C 93 % 1034,2 hPa 0,0 l/m 4,9 km/h N-NW 342 0 min 0,0 UV-I 0 W/m -1,4 C -0,4 C 8,0 km/h
22.01.2020 21:21 -0,4 C 93 % 1034,3 hPa 0,0 l/m 5,5 km/h N-NW 342 0 min 0,0 UV-I 0 W/m -1,4 C -0,4 C 9,7 km/h
22.01.2020 21:18 -0,5 C 93 % 1034,1 hPa 0,0 l/m 4,9 km/h N-NW 342 0 min 0,0 UV-I 0 W/m -1,5 C -0,5 C 8,0 km/h
22.01.2020 21:15 -0,5 C 93 % 1034,1 hPa 0,0 l/m 5,1 km/h N-NW 341 0 min 0,0 UV-I 0 W/m -1,5 C -0,5 C 8,0 km/h
22.01.2020 21:12 -0,5 C 93 % 1034,1 hPa 0,0 l/m 6,7 km/h N-NW 341 0 min 0,0 UV-I 0 W/m -1,5 C -0,8 C 11,3 km/h
22.01.2020 21:09 -0,5 C 93 % 1034,2 hPa 0,0 l/m 7,6 km/h N-NW 342 0 min 0,0 UV-I 0 W/m -1,5 C -1,8 C 12,9 km/h
22.01.2020 21:06 -0,5 C 93 % 1034,2 hPa 0,0 l/m 7,3 km/h N 351 0 min 0,0 UV-I 0 W/m -1,5 C -1,5 C 11,3 km/h
22.01.2020 21:03 -0,5 C 93 % 1034,2 hPa 0,0 l/m 7,0 km/h N 350 0 min 0,0 UV-I 0 W/m -1,5 C -1,1 C 11,3 km/h
22.01.2020 21:00 -0,5 C 93 % 1034,1 hPa 0,0 l/m 7,4 km/h N 355 0 min 0,0 UV-I 0 W/m -1,5 C -1,6 C 14,5 km/h
22.01.2020 20:57 -0,5 C 93 % 1034,1 hPa 0,0 l/m 5,5 km/h N-NW 348 0 min 0,0 UV-I 0 W/m -1,5 C -0,5 C 8,0 km/h
22.01.2020 20:54 -0,5 C 93 % 1034,0 hPa 0,0 l/m 5,6 km/h N 360 0 min 0,0 UV-I 0 W/m -1,5 C -0,5 C 9,7 km/h
22.01.2020 20:51 -0,5 C 93 % 1033,9 hPa 0,0 l/m 5,8 km/h N 5 0 min 0,0 UV-I 0 W/m -1,5 C -0,5 C 9,7 km/h
22.01.2020 20:48 -0,5 C 92 % 1034,0 hPa 0,0 l/m 5,7 km/h N 5 0 min 0,0 UV-I 0 W/m -1,6 C -0,5 C 11,3 km/h
22.01.2020 20:45 -0,5 C 92 % 1034,0 hPa 0,0 l/m 6,1 km/h N 5 0 min 0,0 UV-I 0 W/m -1,6 C -0,5 C 11,3 km/h
22.01.2020 20:42 -0,6 C 92 % 1033,8 hPa 0,0 l/m 7,6 km/h N 349 0 min 0,0 UV-I 0 W/m -1,7 C -1,9 C 11,3 km/h
22.01.2020 20:39 -0,6 C 92 % 1033,8 hPa 0,0 l/m 7,8 km/h N-NW 340 0 min 0,0 UV-I 0 W/m -1,7 C -2,1 C 12,9 km/h
22.01.2020 20:36 -0,6 C 92 % 1033,7 hPa 0,0 l/m 6,3 km/h N-NW 338 0 min 0,0 UV-I 0 W/m -1,7 C -0,6 C 9,7 km/h
22.01.2020 20:33 -0,6 C 92 % 1033,7 hPa 0,0 l/m 8,4 km/h N 350 0 min 0,0 UV-I 0 W/m -1,7 C -2,7 C 14,5 km/h
22.01.2020 20:30 -0,6 C 91 % 1033,7 hPa 0,0 l/m 9,3 km/h N-NW 348 0 min 0,0 UV-I 0 W/m -1,9 C -3,5 C 12,9 km/h
22.01.2020 20:27 -0,6 C 91 % 1033,6 hPa 0,0 l/m 8,6 km/h N 355 0 min 0,0 UV-I 0 W/m -1,9 C -2,9 C 14,5 km/h
22.01.2020 20:24 -0,6 C 91 % 1033,6 hPa 0,0 l/m 8,8 km/h N-NW 329 0 min 0,0 UV-I 0 W/m -1,9 C -3,0 C 14,5 km/h
22.01.2020 20:21 -0,5 C 91 % 1033,6 hPa 0,0 l/m 6,5 km/h N-NW 343 0 min 0,0 UV-I 0 W/m -1,8 C -0,6 C 11,3 km/h
22.01.2020 20:18 -0,5 C 91 % 1033,5 hPa 0,0 l/m 7,3 km/h N-NW 342 0 min 0,0 UV-I 0 W/m -1,8 C -1,5 C 12,9 km/h
22.01.2020 20:15 -0,5 C 91 % 1033,5 hPa 0,0 l/m 11,0 km/h N-NW 337 0 min 0,0 UV-I 0 W/m -1,8 C -4,8 C 16,1 km/h
22.01.2020 20:12 -0,4 C 90 % 1033,5 hPa 0,0 l/m 11,7 km/h N-NW 340 0 min 0,0 UV-I 0 W/m -1,8 C -5,2 C 19,3 km/h
22.01.2020 20:09 -0,4 C 90 % 1033,6 hPa 0,0 l/m 11,9 km/h N 5 0 min 0,0 UV-I 0 W/m -1,8 C -5,4 C 17,7 km/h
22.01.2020 20:06 -0,4 C 90 % 1033,5 hPa 0,0 l/m 12,2 km/h N 350 0 min 0,0 UV-I 0 W/m -1,8 C -5,6 C 19,3 km/h
22.01.2020 20:03 -0,4 C 90 % 1033,3 hPa 0,0 l/m 11,2 km/h N 355 0 min 0,0 UV-I 0 W/m -1,8 C -4,9 C 16,1 km/h
22.01.2020 20:00 -0,4 C 90 % 1033,2 hPa 0,0 l/m 9,6 km/h N-NW 341 0 min 0,0 UV-I 0 W/m -1,8 C -3,6 C 12,9 km/h
22.01.2020 19:57 -0,4 C 89 % 1033,2 hPa 0,0 l/m 10,8 km/h N-NW 344 0 min 0,0 UV-I 0 W/m -2,0 C -4,5 C 17,7 km/h
22.01.2020 19:54 -0,4 C 89 % 1033,3 hPa 0,0 l/m 13,0 km/h N-NW 348 0 min 0,0 UV-I 0 W/m -2,0 C -6,2 C 17,7 km/h
22.01.2020 19:51 -0,4 C 89 % 1033,3 hPa 0,0 l/m 11,0 km/h N 355 0 min 0,0 UV-I 0 W/m -2,0 C -4,7 C 17,7 km/h
22.01.2020 19:48 -0,4 C 89 % 1033,2 hPa 0,0 l/m 8,6 km/h N 355 0 min 0,0 UV-I 0 W/m -2,0 C -2,6 C 14,5 km/h
22.01.2020 19:45 -0,4 C 88 % 1033,1 hPa 0,0 l/m 13,2 km/h N-NW 329 0 min 0,0 UV-I 0 W/m -2,1 C -6,3 C 20,9 km/h
22.01.2020 19:42 -0,4 C 88 % 1033,1 hPa 0,0 l/m 12,9 km/h N-NW 340 0 min 0,0 UV-I 0 W/m -2,1 C -6,1 C 20,9 km/h
22.01.2020 19:39 -0,4 C 88 % 1033,0 hPa 0,0 l/m 12,0 km/h N 5 0 min 0,0 UV-I 0 W/m -2,1 C -5,5 C 19,3 km/h
22.01.2020 19:36 -0,4 C 88 % 1032,9 hPa 0,0 l/m 11,8 km/h N-NW 348 0 min 0,0 UV-I 0 W/m -2,1 C -5,3 C 17,7 km/h
22.01.2020 19:33 -0,4 C 87 % 1032,9 hPa 0,0 l/m 12,4 km/h N 355 0 min 0,0 UV-I 0 W/m -2,3 C -5,8 C 20,9 km/h
22.01.2020 19:30 -0,3 C 87 % 1032,7 hPa 0,0 l/m 12,1 km/h N 360 0 min 0,0 UV-I 0 W/m -2,2 C -5,4 C 20,9 km/h
22.01.2020 19:27 -0,4 C 87 % 1032,6 hPa 0,0 l/m 11,9 km/h N-NW 344 0 min 0,0 UV-I 0 W/m -2,3 C -5,4 C 19,3 km/h
22.01.2020 19:24 -0,4 C 87 % 1032,6 hPa 0,0 l/m 13,3 km/h N-NW 331 0 min 0,0 UV-I 0 W/m -2,3 C -6,4 C 22,5 km/h
22.01.2020 19:21 -0,4 C 87 % 1032,5 hPa 0,0 l/m 10,4 km/h N-NW 346 0 min 0,0 UV-I 0 W/m -2,3 C -4,2 C 16,1 km/h
22.01.2020 19:18 -0,4 C 87 % 1032,5 hPa 0,0 l/m 9,2 km/h N-NW 340 0 min 0,0 UV-I 0 W/m -2,3 C -3,2 C 16,1 km/h
22.01.2020 19:15 -0,4 C 87 % 1032,4 hPa 0,0 l/m 7,2 km/h N 360 0 min 0,0 UV-I 0 W/m -2,3 C -1,2 C 12,9 km/h
22.01.2020 19:12 -0,4 C 87 % 1032,5 hPa 0,0 l/m 9,0 km/h N 355 0 min 0,0 UV-I 0 W/m -2,3 C -3,0 C 14,5 km/h
22.01.2020 19:09 -0,4 C 87 % 1032,5 hPa 0,0 l/m 9,6 km/h N 355 0 min 0,0 UV-I 0 W/m -2,3 C -3,6 C 14,5 km/h
22.01.2020 19:06 -0,4 C 87 % 1032,4 hPa 0,0 l/m 12,8 km/h NW 311 0 min 0,0 UV-I 0 W/m -2,3 C -6,0 C 19,3 km/h
22.01.2020 19:03 -0,4 C 87 % 1032,4 hPa 0,0 l/m 13,0 km/h N 360 0 min 0,0 UV-I 0 W/m -2,3 C -6,2 C 20,9 km/h
22.01.2020 19:00 -0,5 C 87 % 1032,3 hPa 0,0 l/m 11,9 km/h N 360 0 min 0,0 UV-I 0 W/m -2,4 C -5,5 C 19,3 km/h
22.01.2020 18:57 -0,5 C 87 % 1032,1 hPa 0,0 l/m 11,7 km/h N 5 0 min 0,0 UV-I 0 W/m -2,4 C -5,4 C 16,1 km/h
22.01.2020 18:54 -0,5 C 87 % 1031,9 hPa 0,0 l/m 10,3 km/h W-NW 302 0 min 0,0 UV-I 0 W/m -2,4 C -4,3 C 19,3 km/h
22.01.2020 18:51 -0,6 C 87 % 1031,8 hPa 0,0 l/m 11,7 km/h N-NW 346 0 min 0,0 UV-I 0 W/m -2,5 C -5,5 C 17,7 km/h
22.01.2020 18:48 -0,6 C 87 % 1031,8 hPa 0,0 l/m 11,1 km/h N-NW 336 0 min 0,0 UV-I 0 W/m -2,5 C -5,0 C 16,1 km/h
22.01.2020 18:45 -0,6 C 87 % 1031,8 hPa 0,0 l/m 10,2 km/h N-NW 335 0 min 0,0 UV-I 0 W/m -2,5 C -4,3 C 14,5 km/h
22.01.2020 18:42 -0,6 C 87 % 1031,7 hPa 0,0 l/m 12,1 km/h N 355 0 min 0,0 UV-I 0 W/m -2,5 C -5,8 C 17,7 km/h
22.01.2020 18:39 -0,6 C 87 % 1031,5 hPa 0,0 l/m 11,9 km/h NW 320 0 min 0,0 UV-I 0 W/m -2,5 C -5,6 C 17,7 km/h
22.01.2020 18:36 -0,7 C 87 % 1031,5 hPa 0,0 l/m 11,8 km/h N-NW 348 0 min 0,0 UV-I 0 W/m -2,6 C -5,7 C 16,1 km/h
22.01.2020 18:33 -0,7 C 87 % 1031,3 hPa 0,0 l/m 11,4 km/h N-NW 347 0 min 0,0 UV-I 0 W/m -2,6 C -5,4 C 17,7 km/h
22.01.2020 18:30 -0,7 C 87 % 1031,3 hPa 0,0 l/m 10,4 km/h N-NW 342 0 min 0,0 UV-I 0 W/m -2,6 C -4,6 C 19,3 km/h
22.01.2020 18:27 -0,7 C 87 % 1031,3 hPa 0,0 l/m 10,1 km/h N 350 0 min 0,0 UV-I 0 W/m -2,6 C -4,3 C 19,3 km/h
22.01.2020 18:24 -0,7 C 87 % 1031,3 hPa 0,0 l/m 7,3 km/h N 349 0 min 0,0 UV-I 0 W/m -2,6 C -1,7 C 12,9 km/h
22.01.2020 18:21 -0,6 C 87 % 1031,3 hPa 0,0 l/m 11,3 km/h N 350 0 min 0,0 UV-I 0 W/m -2,5 C -5,2 C 17,7 km/h
22.01.2020 18:18 -0,6 C 86 % 1031,4 hPa 0,0 l/m 10,5 km/h N-NW 340 0 min 0,0 UV-I 0 W/m -2,6 C -4,5 C 16,1 km/h
22.01.2020 18:15 -0,6 C 86 % 1031,3 hPa 0,0 l/m 10,1 km/h N-NW 348 0 min 0,0 UV-I 0 W/m -2,6 C -4,2 C 16,1 km/h
22.01.2020 18:12 -0,6 C 86 % 1031,3 hPa 0,0 l/m 10,4 km/h N 355 0 min 0,0 UV-I 0 W/m -2,6 C -4,4 C 17,7 km/h
22.01.2020 18:09 -0,5 C 86 % 1031,1 hPa 0,0 l/m 12,1 km/h N-NW 348 0 min 0,0 UV-I 0 W/m -2,5 C -5,7 C 20,9 km/h
22.01.2020 18:06 -0,4 C 86 % 1031,1 hPa 0,0 l/m 11,3 km/h N 355 0 min 0,0 UV-I 0 W/m -2,4 C -4,9 C 17,7 km/h
22.01.2020 18:03 -0,4 C 86 % 1031,1 hPa 0,0 l/m 10,6 km/h N 351 0 min 0,0 UV-I 0 W/m -2,4 C -4,4 C 14,5 km/h
22.01.2020 18:00 -0,3 C 86 % 1031,1 hPa 0,0 l/m 11,6 km/h N-NW 347 0 min 0,0 UV-I 0 W/m -2,3 C -5,1 C 16,1 km/h
22.01.2020 17:57 -0,3 C 86 % 1031,1 hPa 0,0 l/m 11,4 km/h N-NW 340 0 min 0,0 UV-I 0 W/m -2,3 C -4,9 C 17,7 km/h
22.01.2020 17:54 -0,3 C 86 % 1031,1 hPa 0,0 l/m 12,4 km/h N-NW 340 0 min 0,0 UV-I 0 W/m -2,3 C -5,6 C 19,3 km/h
22.01.2020 17:51 -0,2 C 86 % 1031,1 hPa 0,0 l/m 10,9 km/h N-NW 330 0 min 0,0 UV-I 0 W/m -2,3 C -4,4 C 16,1 km/h
22.01.2020 17:48 -0,2 C 86 % 1031,1 hPa 0,0 l/m 12,4 km/h N-NW 338 0 min 0,0 UV-I 0 W/m -2,3 C -5,5 C 19,3 km/h
22.01.2020 17:45 -0,2 C 86 % 1031,0 hPa 0,0 l/m 10,0 km/h N 5 0 min 0,0 UV-I 0 W/m -2,3 C -3,7 C 14,5 km/h
22.01.2020 17:42 -0,2 C 86 % 1031,1 hPa 0,0 l/m 10,0 km/h N 360 0 min 0,0 UV-I 0 W/m -2,3 C -3,7 C 17,7 km/h
22.01.2020 17:39 -0,1 C 85 % 1031,2 hPa 0,0 l/m 11,2 km/h N 349 0 min 0,0 UV-I 0 W/m -2,3 C -4,5 C 17,7 km/h
22.01.2020 17:36 -0,1 C 85 % 1031,1 hPa 0,0 l/m 12,3 km/h N 355 0 min 0,0 UV-I 0 W/m -2,3 C -5,3 C 19,3 km/h
_ Min-Zeit 05:06 13:57 16:06 - 23:42 - - - - - 05:06 08:18 23:48
Minimum _ -2,8 C 75 % 1029,9 hPa - 0,0 km/h - - - - - -3,3 C -7,9 C 0,0 km/h
_ Max-Zeit 13:48 01:06 23:00 23:00 13:57 - - 09:15 11:39 12:27 13:39 13:36 13:57
Maximum _ 3,9 C 97 % 1038,6 hPa 0,0 l/m 16,3 km/h
NW
- - 3 min 1,5 UV-I 394 W/m 0,3 C 3,4 C 27,4 km/h
N-NW
Durchschnitt _ -0,9 C 92 % 1033,9 hPa #0,0 l/m 5,7 km/h N-NW - #4:36 h 1,2 UV-I 184 W/m -2,1 C -2,2 C 10,1 km/h
Schulla EDV